Weather History for Oklahoma City, OK

Change the Weather History Date:

Saturday, October 8, 2011

  Actual Average Record
Temperature  
Mean Temperature 72 °F 65 °F  
Max Temperature 81 °F 76 °F 94 °F (1979)
Min Temperature 62 °F 54 °F 31 °F (2012)
Degree Days  
Heating Degree Days 0 3  
Month to date heating degree days 2 20  
Since 1 July heating degree days 20 39  
Cooling Degree Days 7 3  
Month to date cooling degree days 46 31  
Year to date cooling degree days 2725 2056  
Growing Degree Days 21 (Base 50)    
Moisture  
Dew Point 61 °F    
Average Humidity 72    
Maximum Humidity 93    
Minimum Humidity 50    
Precipitation  
Precipitation 1.32 in 0.12 in 2.39 in (2009)
Month to date precipitation 1.32 0.95  
Year to date precipitation 21.64 29.90  
Snow  
Snow 0.00 in 0.00 in 0.00 in ()
Month to date snowfall 0.0 0.0  
Since 1 July snowfall 0.0 0.0  
Snow Depth -    
Sea Level Pressure  
Sea Level Pressure 30.00 in    
Wind  
Wind Speed 15 mph (SSE)    
Max Wind Speed 31 mph    
Max Gust Speed 38 mph    
Visibility 8 miles    
Events Rain , Thunderstorm    
T = Trace of Precipitation, MM = Missing Value Source: NWS Daily Summary

Daily Weather History Graph

Daily Weather History Graph

Search for Another Location

Airport:

Trip Planner

Search our weather history database for the weather conditions in past years. The results will help you decide how hot, cold, wet, or windy it might be!

Date:

Astronomy

Oct. 08, 2011 Rise Set
Actual Time 7:30 AM CDT 7:04 PM CDT
Civil Twilight 7:05 AM CDT 7:30 PM CDT
Nautical Twilight 6:35 AM CDT 7:59 PM CDT
Astronomical Twilight 6:06 AM CDT 8:29 PM CDT
Moon 5:11 PM CDT (10/8) 4:25 AM CDT (10/8)
Length of Visible Light 12h 24m
Length of Day
11h 34m
Waxing Gibbous, 90% of the Moon is Illuminated
Oct 8
Waxing Gibbous
Oct 11
Full
Oct 19
Last Quarter
Oct 26
New
Nov 2
First Quarter

Hourly Weather History & Observations

Time (CDT) Temp. Heat Index Dew Point Humidity Pressure Visibility Wind Dir Wind Speed Gust Speed Precip Events Conditions
12:52 AM 75.9 °F - 55.0 °F 48% 29.92 in 10.0 mi SSE 23.0 mph 32.2 mph N/A   Mostly Cloudy
1:52 AM 75.0 °F - 55.9 °F 51% 29.91 in 10.0 mi SSE 21.9 mph 34.5 mph N/A   Partly Cloudy
2:52 AM 73.9 °F - 57.0 °F 55% 29.91 in 10.0 mi SSE 25.3 mph 32.2 mph N/A   Clear
3:52 AM 72.0 °F - 57.9 °F 61% 29.91 in 10.0 mi SSE 17.3 mph 29.9 mph N/A   Clear
4:52 AM 71.1 °F - 60.1 °F 68% 29.93 in 10.0 mi SSE 19.6 mph 27.6 mph N/A   Clear
5:52 AM 70.0 °F - 61.0 °F 73% 29.94 in 10.0 mi SSE 18.4 mph 25.3 mph N/A   Clear
6:25 AM 69.8 °F - 60.8 °F 73% 30.00 in 10.0 mi SSE 15.0 mph 25.3 mph N/A   Overcast
6:52 AM 71.1 °F - 62.1 °F 73% 29.95 in 10.0 mi SSE 16.1 mph 27.6 mph N/A   Mostly Cloudy
7:52 AM 69.1 °F - 61.0 °F 75% 29.97 in 10.0 mi SSE 17.3 mph - N/A   Scattered Clouds
8:52 AM 71.1 °F - 61.0 °F 70% 30.00 in 10.0 mi SSE 20.7 mph 29.9 mph N/A   Mostly Cloudy
9:52 AM 72.0 °F - 61.0 °F 68% 30.01 in 10.0 mi SSE 23.0 mph 29.9 mph 0.00 in   Mostly Cloudy
10:52 AM 73.9 °F - 61.0 °F 64% 30.02 in 10.0 mi SSE 28.8 mph 36.8 mph N/A   Mostly Cloudy
11:52 AM 77.0 °F - 62.1 °F 60% 30.00 in 10.0 mi SSE 20.7 mph 33.4 mph N/A   Mostly Cloudy
12:52 PM 80.6 °F 81.8 °F 62.6 °F 54% 30.02 in 10.0 mi SSE 24.2 mph 36.8 mph N/A   Mostly Cloudy
1:52 PM 79.0 °F - 61.0 °F 54% 29.96 in 10.0 mi SSE 21.9 mph 27.6 mph N/A   Mostly Cloudy
2:44 PM 68.0 °F - 64.4 °F 88% 29.99 in 4.0 mi SW 18.4 mph - 0.03 in Rain Rain
2:52 PM 66.9 °F - 64.0 °F 90% 29.96 in 5.0 mi SW 12.7 mph - 0.04 in Rain Light Rain
3:52 PM 66.9 °F - 64.0 °F 90% 29.96 in 10.0 mi SSW 5.8 mph - 0.00 in   Overcast
4:52 PM 63.0 °F - 61.0 °F 93% 29.99 in 4.0 mi WNW 10.4 mph - 0.17 in Rain Light Rain
5:02 PM 62.6 °F - 60.8 °F 94% 30.03 in 2.5 mi West 4.6 mph - 0.05 in Rain , Thunderstorm Thunderstorms and Rain
5:16 PM 62.6 °F - 60.8 °F 94% 30.04 in 1.8 mi WNW 5.8 mph - 0.15 in Rain , Thunderstorm Heavy Thunderstorms and Rain
5:28 PM 62.6 °F - 60.8 °F 94% 30.05 in 2.0 mi WNW 4.6 mph - 0.25 in Rain , Thunderstorm Heavy Thunderstorms and Rain
5:52 PM 62.1 °F - 61.0 °F 96% 30.03 in 2.0 mi NNW 5.8 mph - 0.42 in Rain , Thunderstorm Thunderstorms and Rain
6:01 PM 62.6 °F - 60.8 °F 94% 30.06 in 4.0 mi North 6.9 mph - 0.03 in Rain , Thunderstorm Thunderstorms and Rain
6:15 PM 62.6 °F - 60.8 °F 94% 30.05 in 5.0 mi North 6.9 mph - 0.07 in Rain Rain
6:52 PM 62.6 °F - 60.8 °F 94% 30.05 in 4.0 mi NE 9.2 mph - N/A Rain Rain
7:52 PM 62.6 °F - 60.8 °F 94% 30.07 in 9.0 mi NE 8.1 mph - N/A Rain Light Rain
8:52 PM 63.0 °F - 61.0 °F 93% 30.06 in 7.0 mi ENE 4.6 mph - 0.06 in Rain Light Rain
9:52 PM 62.1 °F - 61.0 °F 96% 30.04 in 10.0 mi NE 12.7 mph - 0.12 in Rain Light Rain
10:52 PM 62.1 °F - 61.0 °F 96% 30.04 in 9.0 mi ENE 11.5 mph - 0.04 in Rain Light Rain
11:52 PM 62.1 °F - 61.0 °F 96% 30.04 in 10.0 mi East 9.2 mph - 0.04 in Rain Light Rain